Time,TemperatureF,DewpointF,PressureIn,WindDirection,WindDirectionDegrees,WindSpeedMPH,WindSpeedGustMPH,Humidity,HourlyPrecipIn,Conditions,Clouds,dailyrainin,SolarRadiationWatts/m^2,SoftwareType,DateUTC
2013-03-01 00:01:00,32.0,24.0,-100.00,West,259,4.0,14.0,72,0.00,,,0.00,0.000000,,2013-03-01 05:01:00,
2013-03-01 00:33:00,32.0,24.0,-100.00,West,259,4.0,14.0,72,0.00,,,0.00,0.000000,,2013-03-01 05:33:00,
2013-03-01 00:42:00,32.0,24.0,-100.00,West,259,4.0,14.0,72,0.00,,,0.00,0.000000,,2013-03-01 05:42:00,
2013-03-01 00:53:00,32.0,24.0,-100.00,West,259,4.0,14.0,72,0.00,,,0.00,0.000000,,2013-03-01 05:53:00,
2013-03-01 01:01:00,32.0,24.0,-100.00,SW,232,3.0,10.0,73,0.00,,,0.00,0.000000,,2013-03-01 06:01:00,
2013-03-01 01:32:00,32.0,24.0,-100.00,SW,232,3.0,10.0,73,0.00,,,0.00,0.000000,,2013-03-01 06:32:00,
2013-03-01 01:42:00,32.0,24.0,-100.00,SW,232,3.0,10.0,73,0.00,,,0.00,0.000000,,2013-03-01 06:42:00,
2013-03-01 01:53:00,32.0,24.0,-100.00,SW,232,3.0,10.0,73,0.00,,,0.00,0.000000,,2013-03-01 06:53:00,
2013-03-01 02:01:00,32.0,25.0,-100.00,SSW,201,3.0,9.0,74,0.00,,,0.00,0.000000,,2013-03-01 07:01:00,
2013-03-01 02:33:00,32.0,25.0,-100.00,SSW,201,3.0,9.0,74,0.00,,,0.00,0.000000,,2013-03-01 07:33:00,
2013-03-01 02:42:00,32.0,25.0,-100.00,SSW,201,3.0,9.0,74,0.00,,,0.00,0.000000,,2013-03-01 07:42:00,
2013-03-01 02:52:00,32.0,25.0,-100.00,SSW,201,3.0,9.0,74,0.00,,,0.00,0.000000,,2013-03-01 07:52:00,
2013-03-01 03:01:00,31.0,23.0,-100.00,ESE,107,2.0,10.0,73,0.00,,,0.00,0.000000,,2013-03-01 08:01:00,
2013-03-01 03:22:00,31.0,23.0,-100.00,ESE,107,2.0,10.0,73,0.00,,,0.00,0.000000,,2013-03-01 08:22:00,
2013-03-01 03:33:00,31.0,23.0,-100.00,ESE,107,2.0,10.0,73,0.00,,,0.00,0.000000,,2013-03-01 08:33:00,
2013-03-01 03:43:00,31.0,23.0,-100.00,ESE,107,2.0,10.0,73,0.00,,,0.00,0.000000,,2013-03-01 08:43:00,
2013-03-01 03:53:00,31.0,23.0,-100.00,ESE,107,2.0,10.0,73,0.00,,,0.00,0.000000,,2013-03-01 08:53:00,
2013-03-01 04:01:00,32.0,23.0,-100.00,South,171,2.0,11.0,70,0.00,,,0.00,0.000000,,2013-03-01 09:01:00,
2013-03-01 04:22:00,32.0,23.0,-100.00,South,171,2.0,11.0,70,0.00,,,0.00,0.000000,,2013-03-01 09:22:00,
2013-03-01 04:32:00,32.0,23.0,-100.00,South,171,2.0,11.0,70,0.00,,,0.00,0.000000,,2013-03-01 09:32:00,
2013-03-01 04:42:00,32.0,23.0,-100.00,South,171,2.0,11.0,70,0.00,,,0.00,0.000000,,2013-03-01 09:42:00,
2013-03-01 04:53:00,32.0,23.0,-100.00,South,171,2.0,11.0,70,0.00,,,0.00,0.000000,,2013-03-01 09:53:00,
2013-03-01 05:01:00,33.0,23.0,-100.00,SE,142,2.0,11.0,67,0.00,,,0.00,0.000000,,2013-03-01 10:01:00,
2013-03-01 05:32:00,33.0,23.0,-100.00,SE,142,2.0,11.0,67,0.00,,,0.00,0.000000,,2013-03-01 10:32:00,
2013-03-01 05:42:00,33.0,23.0,-100.00,SE,142,2.0,11.0,67,0.00,,,0.00,0.000000,,2013-03-01 10:42:00,
2013-03-01 05:53:00,33.0,23.0,-100.00,SE,142,2.0,11.0,67,0.00,,,0.00,0.000000,,2013-03-01 10:53:00,
2013-03-01 06:01:00,33.0,21.0,-100.00,North,7,6.0,14.0,62,0.00,,,0.00,0.000000,,2013-03-01 11:01:00,
2013-03-01 06:32:00,33.0,21.0,-100.00,North,7,6.0,14.0,62,0.00,,,0.00,0.000000,,2013-03-01 11:32:00,
2013-03-01 06:42:00,33.0,21.0,-100.00,North,7,6.0,14.0,62,0.00,,,0.00,0.000000,,2013-03-01 11:42:00,
2013-03-01 06:53:00,33.0,21.0,-100.00,North,7,6.0,14.0,62,0.00,,,0.00,0.000000,,2013-03-01 11:53:00,
2013-03-01 07:01:00,33.0,20.0,-100.00,NNW,337,5.0,15.0,58,0.00,,,0.00,0.000000,,2013-03-01 12:01:00,
2013-03-01 07:33:00,33.0,20.0,-100.00,NNW,337,5.0,15.0,58,0.00,,,0.00,0.000000,,2013-03-01 12:33:00,
2013-03-01 07:42:00,33.0,20.0,-100.00,NNW,337,5.0,15.0,58,0.00,,,0.00,0.000000,,2013-03-01 12:42:00,
2013-03-01 07:52:00,33.0,20.0,-100.00,NNW,337,5.0,15.0,58,0.00,,,0.00,0.000000,,2013-03-01 12:52:00,
2013-03-01 08:01:00,32.0,19.0,-100.00,ENE,72,4.0,15.0,59,0.00,,,0.00,0.000000,,2013-03-01 13:01:00,
2013-03-01 08:32:00,32.0,19.0,-100.00,ENE,72,4.0,15.0,59,0.00,,,0.00,0.000000,,2013-03-01 13:32:00,
2013-03-01 08:42:00,32.0,19.0,-100.00,ENE,72,4.0,15.0,59,0.00,,,0.00,0.000000,,2013-03-01 13:42:00,
2013-03-01 08:52:00,32.0,19.0,-100.00,ENE,72,4.0,15.0,59,0.00,,,0.00,0.000000,,2013-03-01 13:52:00,
2013-03-01 09:01:00,33.0,20.0,-100.00,NW,311,3.0,11.0,59,0.00,,,0.00,0.000000,,2013-03-01 14:01:00,
2013-03-01 09:32:00,33.0,20.0,-100.00,NW,311,3.0,11.0,59,0.00,,,0.00,0.000000,,2013-03-01 14:32:00,
2013-03-01 09:42:00,33.0,20.0,-100.00,NW,311,3.0,11.0,59,0.00,,,0.00,0.000000,,2013-03-01 14:42:00,
2013-03-01 09:52:00,33.0,20.0,-100.00,NW,311,3.0,11.0,59,0.00,,,0.00,0.000000,,2013-03-01 14:52:00,
2013-03-01 10:01:00,33.0,20.0,-100.00,NNE,29,4.0,11.0,59,0.00,,,0.00,0.000000,,2013-03-01 15:01:00,
2013-03-01 10:21:00,33.0,20.0,-100.00,NNE,29,4.0,11.0,59,0.00,,,0.00,0.000000,,2013-03-01 15:21:00,
2013-03-01 10:32:00,33.0,20.0,-100.00,NNE,29,4.0,11.0,59,0.00,,,0.00,0.000000,,2013-03-01 15:32:00,
2013-03-01 10:42:00,33.0,20.0,-100.00,NNE,29,4.0,11.0,59,0.00,,,0.00,0.000000,,2013-03-01 15:42:00,
2013-03-01 10:52:00,33.0,20.0,-100.00,NNE,29,4.0,11.0,59,0.00,,,0.00,0.000000,,2013-03-01 15:52:00,
2013-03-01 11:01:00,33.0,19.0,-100.00,North,0,5.0,10.0,57,0.00,,,0.00,0.000000,,2013-03-01 16:01:00,
2013-03-01 11:32:00,33.0,19.0,-100.00,North,0,5.0,10.0,57,0.00,,,0.00,0.000000,,2013-03-01 16:32:00,
2013-03-01 11:42:00,33.0,19.0,-100.00,North,0,5.0,10.0,57,0.00,,,0.00,0.000000,,2013-03-01 16:42:00,
2013-03-01 11:52:00,33.0,19.0,-100.00,North,0,5.0,10.0,57,0.00,,,0.00,0.000000,,2013-03-01 16:52:00,
2013-03-01 12:01:00,33.0,19.0,-100.00,North,350,5.0,10.0,57,0.00,,,0.00,0.000000,,2013-03-01 17:01:00,
2013-03-01 12:32:00,33.0,19.0,-100.00,North,350,5.0,10.0,57,0.00,,,0.00,0.000000,,2013-03-01 17:32:00,
2013-03-01 12:42:00,33.0,19.0,-100.00,North,350,5.0,10.0,57,0.00,,,0.00,0.000000,,2013-03-01 17:42:00,
2013-03-01 12:52:00,33.0,19.0,-100.00,North,350,5.0,10.0,57,0.00,,,0.00,0.000000,,2013-03-01 17:52:00,
2013-03-01 13:01:00,34.0,20.0,-100.00,NNW,328,4.0,13.0,57,0.00,,,0.00,0.000000,,2013-03-01 18:01:00,
2013-03-01 13:32:00,34.0,20.0,-100.00,NNW,328,4.0,13.0,57,0.00,,,0.00,0.000000,,2013-03-01 18:32:00,
2013-03-01 13:42:00,34.0,20.0,-100.00,NNW,328,4.0,13.0,57,0.00,,,0.00,0.000000,,2013-03-01 18:42:00,
2013-03-01 13:52:00,34.0,20.0,-100.00,NNW,328,4.0,13.0,57,0.00,,,0.00,0.000000,,2013-03-01 18:52:00,
2013-03-01 14:01:00,34.0,20.0,-100.00,NNW,331,4.0,12.0,55,0.00,,,0.00,0.000000,,2013-03-01 19:01:00,
2013-03-01 14:22:00,34.0,20.0,-100.00,NNW,331,4.0,12.0,55,0.00,,,0.00,0.000000,,2013-03-01 19:22:00,
2013-03-01 14:32:00,34.0,20.0,-100.00,NNW,331,4.0,12.0,55,0.00,,,0.00,0.000000,,2013-03-01 19:32:00,
2013-03-01 14:42:00,34.0,20.0,-100.00,NNW,331,4.0,12.0,55,0.00,,,0.00,0.000000,,2013-03-01 19:42:00,
2013-03-01 14:52:00,34.0,20.0,-100.00,NNW,331,4.0,12.0,55,0.00,,,0.00,0.000000,,2013-03-01 19:52:00,
2013-03-01 15:01:00,34.0,20.0,-100.00,NW,321,5.0,11.0,55,0.00,,,0.00,0.000000,,2013-03-01 20:01:00,
2013-03-01 15:22:00,34.0,20.0,-100.00,NW,321,5.0,11.0,55,0.00,,,0.00,0.000000,,2013-03-01 20:22:00,
2013-03-01 15:32:00,34.0,20.0,-100.00,NW,321,5.0,11.0,55,0.00,,,0.00,0.000000,,2013-03-01 20:32:00,
2013-03-01 15:42:00,34.0,20.0,-100.00,NW,321,5.0,11.0,55,0.00,,,0.00,0.000000,,2013-03-01 20:42:00,
2013-03-01 15:52:00,34.0,20.0,-100.00,NW,321,5.0,11.0,55,0.00,,,0.00,0.000000,,2013-03-01 20:52:00,
2013-03-01 16:01:00,33.0,18.0,-100.00,NNW,337,6.0,13.0,54,0.00,,,0.00,0.000000,,2013-03-01 21:01:00,
2013-03-01 16:22:00,33.0,18.0,-100.00,NNW,337,6.0,13.0,54,0.00,,,0.00,0.000000,,2013-03-01 21:22:00,
2013-03-01 16:32:00,33.0,18.0,-100.00,NNW,337,6.0,13.0,54,0.00,,,0.00,0.000000,,2013-03-01 21:32:00,
2013-03-01 16:42:00,33.0,18.0,-100.00,NNW,337,6.0,13.0,54,0.00,,,0.00,0.000000,,2013-03-01 21:42:00,
2013-03-01 16:52:00,33.0,18.0,-100.00,NNW,337,6.0,13.0,54,0.00,,,0.00,0.000000,,2013-03-01 21:52:00,
2013-03-01 17:01:00,32.0,18.0,-100.00,NW,326,3.0,12.0,56,0.00,,,0.00,0.000000,,2013-03-01 22:01:00,
2013-03-01 17:32:00,32.0,18.0,-100.00,NW,326,3.0,12.0,56,0.00,,,0.00,0.000000,,2013-03-01 22:32:00,
2013-03-01 17:42:00,32.0,18.0,-100.00,NW,326,3.0,12.0,56,0.00,,,0.00,0.000000,,2013-03-01 22:42:00,
2013-03-01 17:52:00,32.0,18.0,-100.00,NW,326,3.0,12.0,56,0.00,,,0.00,0.000000,,2013-03-01 22:52:00,
2013-03-01 18:01:00,31.0,18.0,-100.00,NNE,30,4.0,14.0,58,0.00,,,0.00,0.000000,,2013-03-01 23:01:00,
2013-03-01 18:32:00,31.0,18.0,-100.00,NNE,30,4.0,14.0,58,0.00,,,0.00,0.000000,,2013-03-01 23:32:00,
2013-03-01 18:42:00,31.0,18.0,-100.00,NNE,30,4.0,14.0,58,0.00,,,0.00,0.000000,,2013-03-01 23:42:00,
2013-03-01 18:52:00,31.0,18.0,-100.00,NNE,30,4.0,14.0,58,0.00,,,0.00,0.000000,,2013-03-01 23:52:00,
2013-03-01 19:01:00,31.0,18.0,-100.00,NE,50,4.0,11.0,59,0.00,,,0.00,0.000000,,2013-03-02 00:01:00,
2013-03-01 19:32:00,31.0,18.0,-100.00,NE,50,4.0,11.0,59,0.00,,,0.00,0.000000,,2013-03-02 00:32:00,
2013-03-01 19:42:00,31.0,18.0,-100.00,NE,50,4.0,11.0,59,0.00,,,0.00,0.000000,,2013-03-02 00:42:00,
2013-03-01 19:52:00,31.0,18.0,-100.00,NE,50,4.0,11.0,59,0.00,,,0.00,0.000000,,2013-03-02 00:52:00,
2013-03-01 20:01:00,31.0,17.0,-100.00,WSW,246,3.0,15.0,56,0.00,,,0.00,0.000000,,2013-03-02 01:01:00,
2013-03-01 20:32:00,31.0,17.0,-100.00,WSW,246,3.0,15.0,56,0.00,,,0.00,0.000000,,2013-03-02 01:32:00,
2013-03-01 20:42:00,31.0,17.0,-100.00,WSW,246,3.0,15.0,56,0.00,,,0.00,0.000000,,2013-03-02 01:42:00,
2013-03-01 20:52:00,31.0,17.0,-100.00,WSW,246,3.0,15.0,56,0.00,,,0.00,0.000000,,2013-03-02 01:52:00,
2013-03-01 21:01:00,30.0,17.0,-100.00,NE,54,4.0,11.0,59,0.00,,,0.00,0.000000,,2013-03-02 02:01:00,
2013-03-01 21:32:00,30.0,17.0,-100.00,NE,54,4.0,11.0,59,0.00,,,0.00,0.000000,,2013-03-02 02:32:00,
2013-03-01 21:42:00,30.0,17.0,-100.00,NE,54,4.0,11.0,59,0.00,,,0.00,0.000000,,2013-03-02 02:42:00,
2013-03-01 21:52:00,30.0,17.0,-100.00,NE,54,4.0,11.0,59,0.00,,,0.00,0.000000,,2013-03-02 02:52:00,
2013-03-01 22:01:00,30.0,17.0,-100.00,North,357,4.0,15.0,57,0.00,,,0.00,0.000000,,2013-03-02 03:01:00,
2013-03-01 22:32:00,30.0,17.0,-100.00,North,357,4.0,15.0,57,0.00,,,0.00,0.000000,,2013-03-02 03:32:00,
2013-03-01 22:42:00,30.0,17.0,-100.00,North,357,4.0,15.0,57,0.00,,,0.00,0.000000,,2013-03-02 03:42:00,
2013-03-01 22:52:00,30.0,17.0,-100.00,North,357,4.0,15.0,57,0.00,,,0.00,0.000000,,2013-03-02 03:52:00,
2013-03-01 23:01:00,29.0,18.0,-100.00,NNW,347,3.0,10.0,62,0.00,,,0.00,0.000000,,2013-03-02 04:01:00,
2013-03-01 23:32:00,29.0,18.0,-100.00,NNW,347,3.0,10.0,62,0.00,,,0.00,0.000000,,2013-03-02 04:32:00,
2013-03-01 23:42:00,29.0,18.0,-100.00,NNW,347,3.0,10.0,62,0.00,,,0.00,0.000000,,2013-03-02 04:42:00,
2013-03-01 23:52:00,29.0,18.0,-100.00,NNW,347,3.0,10.0,62,0.00,,,0.00,0.000000,,2013-03-02 04:52:00,